Miscellaneous Local Product
Issued by NWS Hastings, NE

Home | Current Version | Previous Version | Text Only | Print | Product List | Glossary Off
Versions: 1 2 3 4 5 6 7 8 9 10 11 12 13 14 15 16 17 18 19 20 21 22 23 24 25 26 27 28 29 30 31 32 33 34 35 36 37 38 39 40 41 42 43 44 45 46 47 48 49 50

000
AXUS43 KGID 260302
MISGRI

GID CWA HOURLY WEATHER ROUNDUP
NATIONAL WEATHER SERVICE HASTINGS NE
900 PM CST SUN JAN 25 2015

NOTE: "FAIR" INDICATES FEW OR NO CLOUDS BELOW 12,000 FEET WITH NO
SIGNIFICANT WEATHER AND/OR OBSTRUCTIONS TO VISIBILITY.

...SOUTH CENTRAL NEBRASKA...

CITY           SKY/WX    TMP DP  RH WIND       PRES   REMARKS
GRAND ISLAND   CLEAR     26  22  84 SW5       30.07F WCI  20
HASTINGS       CLEAR     26  21  81 SW3       30.07S
KEARNEY        CLEAR     30  25  80 SW5       30.07S WCI  25
ORD            CLEAR     26  22  84 SW5       30.03F WCI  20
YORK           PTCLDY    32  32 100 CALM      30.08R
AURORA         CLEAR     28  25  88 SW5       30.06F WCI  23
LEXINGTON      CLOUDY    33  28  81 SW6       30.06F WCI  27
HOLDREGE       CLEAR     32  24  74 S5        30.07S WCI  27
HEBRON         CLEAR     27  24  89 CALM      30.09F

...NEBRASKA PANHANDLE...

CITY           SKY/WX    TMP DP  RH WIND       PRES   REMARKS
CHADRON        CLEAR     36  30  79 SW9       30.04S WCI  29
ALLIANCE       CLEAR     36  31  82 W13       30.06R WCI  27
SCOTTSBLUFF    CLEAR     36  31  82 NW7       30.11R WCI  30
SIDNEY         CLEAR     42  30  62 W15       30.13R

...WESTERN AND NORTH CENTRAL NEBRASKA...

CITY           SKY/WX    TMP DP  RH WIND       PRES   REMARKS
VALENTINE      MOCLDY    37  27  67 SW5       29.98F WCI  33
AINSWORTH      CLOUDY    35  29  80 S5        29.98F WCI  31
ONEILL         MOCLDY    31  28  91 S5        30.01F WCI  26
BROKEN BOW     CLOUDY    31  26  82 CALM      30.04R
IMPERIAL       MOCLDY    41  32  70 W9        30.08F
NORTH PLATTE   CLOUDY    37  25  61 CALM      30.05S
MCCOOK         CLOUDY    41  21  44 SW9       30.08S

...EASTERN NEBRASKA...

CITY           SKY/WX    TMP DP  RH WIND       PRES   REMARKS
NORFOLK        MOCLDY    30  28  92 S5        30.03F WCI  25
SO SIOUX CITY  CLOUDY    36  31  82 CALM      30.06F
TEKAMAH        CLOUDY    34  32  92 CALM      30.07F
COLUMBUS       CLEAR     28  25  86 CALM      30.07F
ALBION         CLEAR     28  26  92 CALM      30.05S
OMAHA EPPLEY   CLOUDY    36  32  85 CALM      30.08S
OFFUTT AFB     CLOUDY    35  31  85 W3        30.08S
MILLARD        CLOUDY    36  32  86 CALM      30.09R
LINCOLN        CLOUDY    34  29  82 CALM      30.09F
NEBRASKA CITY  CLOUDY    36  30  78 NW5       30.09S WCI  32
BEATRICE       PTCLDY    33  30  91 CALM      30.09S
FALLS CITY     CLOUDY    35  29  78 E5        30.11R WCI  31

...NORTHERN KANSAS...

CITY           SKY/WX    TMP DP  RH WIND       PRES   REMARKS
GOODLAND       CLEAR     35  29  78 SW6       30.13S WCI  30
HILL CITY      CLEAR     28  18  66 W6        30.11R WCI  22
NORTON         PTCLDY    28  19  69 S3        30.08S
PHILLIPSBURG   CLEAR     32  23  69 CALM      30.10S
SMITH CENTER   CLEAR     27  21  80 CALM      30.11R
BELOIT         CLEAR     25  19  80 CALM      30.10F
HAYS           FAIR      28  16  59 CALM      30.11S
RUSSELL        CLEAR     33  25  72 SE9       30.09F WCI  25
CONCORDIA      CLEAR     31  28  89 S5        30.10S WCI  26
SALINA         CLEAR     32  27  81 CALM      30.12F
TOPEKA         CLOUDY    39  28  64 NW8       30.12S WCI  33



USA.gov is the U.S. government's official web portal to all federal, state and local government web resources and services.